Terminal Aerodrome Forecast
Issued by NWS

Current Version | Previous Version | Graphics & Text | Print | Product List | Glossary On
Versions: 1 2 3 4 5 6 7 8 9 10 11 12 13 14 15 16 17 18 19
724
FTUS41 KPBZ 221308 AAA
TAFHLG
TAF AMD
KHLG 221308Z 2213/2312 19006KT P6SM BKN200
     FM221500 24008KT P6SM BKN040
      TEMPO 2215/2216 5SM -TSRA BKN025CB
     FM222000 24010KT P6SM VCTS BKN040CB
     FM230000 23003KT P6SM SCT040=

USA.gov is the U.S. government's official web portal to all federal, state and local government web resources and services.